• In Netherlands
  • List of Countries
  • For 7 days
  • Water Temperature
  • Satellite Maps
  • Weather Map
  • Weather Widgets
  • user-avatar
    Login

    Hourly Weather Ghent

    Today, 24 February, Friday

    Time Temperature Precipitation Wind Pressure Humidity
    00:00 +4°C° 0.1 mm 7 mps 752 mmHg 78%
    01:00 +3°C° 0.1 mm 7 mps 753 mmHg 81%
    02:00 +3°C° 0.1 mm 6 mps 754 mmHg 83%
    03:00 +2°C° 0.1 mm 5 mps 754 mmHg 86%
    04:00 +3°C° 0 mm 4 mps 755 mmHg 87%
    05:00 +1°C° 0 mm 4 mps 756 mmHg 89%
    06:00 +2°C° 0 mm 3 mps 756 mmHg 90%
    07:00 +3°C° 0.3 mm 4 mps 757 mmHg 88%
    08:00 +4°C° 0.3 mm 4 mps 758 mmHg 86%
    09:00 +4°C° 0.3 mm 4 mps 758 mmHg 84%
    10:00 +5°C° 0.4 mm 4 mps 759 mmHg 82%
    11:00 +5°C° 0.4 mm 4 mps 759 mmHg 79%
    12:00 +6°C° 0.4 mm 4 mps 760 mmHg 77%
    13:00 +6°C° 0.1 mm 4 mps 760 mmHg 77%
    14:00 +6°C° 0.1 mm 4 mps 760 mmHg 77%
    15:00 +5°C° 0.1 mm 4 mps 761 mmHg 77%
    16:00 +5°C° 0 mm 4 mps 761 mmHg 80%
    17:00 +4°C° 0 mm 3 mps 762 mmHg 83%
    18:00 +5°C° 0 mm 2 mps 763 mmHg 86%
    19:00 +4°C° 0 mm 2 mps 763 mmHg 86%
    20:00 +4°C° 0 mm 2 mps 764 mmHg 86%
    21:00 +5°C° 0 mm 1 mps 764 mmHg 86%
    22:00 +4°C° 0 mm 2 mps 764 mmHg 86%
    23:00 +4°C° 0 mm 2 mps 764 mmHg 87%

    Tomorrow, 25 February, Saturday

    Time Temperature Precipitation Wind Pressure Humidity
    00:00 +2°C° 0 mm 3 mps 765 mmHg 88%
    01:00 +2°C° 0 mm 3 mps 765 mmHg 88%
    02:00 +1°C° 0 mm 3 mps 764 mmHg 89%
    03:00 0°C° 0 mm 4 mps 764 mmHg 90%
    04:00 0°C° 0 mm 4 mps 764 mmHg 89%
    05:00 0°C° 0 mm 4 mps 764 mmHg 89%
    06:00 0°C° 0 mm 4 mps 764 mmHg 88%
    07:00 +1°C° 0 mm 5 mps 764 mmHg 85%
    08:00 +2°C° 0 mm 5 mps 764 mmHg 82%
    09:00 +3°C° 0 mm 6 mps 764 mmHg 79%
    10:00 +4°C° 0.1 mm 6 mps 763 mmHg 76%
    11:00 +4°C° 0.1 mm 7 mps 763 mmHg 73%
    12:00 +5°C° 0.1 mm 7 mps 763 mmHg 71%
    13:00 +6°C° 0 mm 7 mps 762 mmHg 71%
    14:00 +6°C° 0 mm 7 mps 762 mmHg 71%
    15:00 +6°C° 0 mm 7 mps 761 mmHg 71%
    16:00 +7°C° 0 mm 6 mps 761 mmHg 73%
    17:00 +5°C° 0 mm 6 mps 761 mmHg 76%
    18:00 +5°C° 0 mm 6 mps 761 mmHg 79%
    19:00 +5°C° 0 mm 6 mps 760 mmHg 79%
    20:00 +5°C° 0 mm 7 mps 760 mmHg 79%
    21:00 +5°C° 0 mm 7 mps 760 mmHg 79%
    22:00 +4°C° 0.1 mm 7 mps 760 mmHg 81%
    23:00 +4°C° 0.1 mm 7 mps 760 mmHg 82%

    Day after tomorrow, 26 February, Sunday

    Time Temperature Precipitation Wind Pressure Humidity
    00:00 +4°C° 0.1 mm 7 mps 759 mmHg 84%
    01:00 +4°C° 0.1 mm 7 mps 759 mmHg 85%
    02:00 +4°C° 0.1 mm 7 mps 759 mmHg 85%
    03:00 +4°C° 0.1 mm 7 mps 758 mmHg 86%
    04:00 +4°C° 0.1 mm 7 mps 758 mmHg 86%
    05:00 +4°C° 0.1 mm 7 mps 758 mmHg 87%
    06:00 +4°C° 0.1 mm 7 mps 758 mmHg 87%
    07:00 +4°C° 0 mm 7 mps 758 mmHg 87%
    08:00 +4°C° 0 mm 7 mps 758 mmHg 86%
    09:00 +5°C° 0 mm 7 mps 758 mmHg 86%
    10:00 +6°C° 0 mm 7 mps 757 mmHg 86%
    11:00 +6°C° 0 mm 7 mps 757 mmHg 85%
    12:00 +8°C° 0 mm 7 mps 757 mmHg 84%
    13:00 +9°C° 0 mm 7 mps 756 mmHg 84%
    14:00 +9°C° 0 mm 6 mps 756 mmHg 83%
    15:00 +10°C° 0 mm 6 mps 755 mmHg 83%
    16:00 +10°C° 0 mm 6 mps 755 mmHg 84%
    17:00 +9°C° 0 mm 7 mps 755 mmHg 86%
    18:00 +9°C° 0 mm 7 mps 755 mmHg 88%
    19:00 +9°C° 0 mm 7 mps 754 mmHg 88%
    20:00 +9°C° 0 mm 7 mps 754 mmHg 87%
    21:00 +9°C° 0 mm 7 mps 754 mmHg 87%
    22:00 +9°C° 0 mm 7 mps 753 mmHg 85%
    23:00 +9°C° 0 mm 7 mps 753 mmHg 84%

    27 February, Monday

    Time Temperature Precipitation Wind Pressure Humidity
    00:00 +9°C° 0 mm 8 mps 752 mmHg 83%
    01:00 +9°C° 0.2 mm 8 mps 752 mmHg 84%
    02:00 +9°C° 0.2 mm 8 mps 751 mmHg 84%
    03:00 +7°C° 0.2 mm 8 mps 751 mmHg 85%
    04:00 +7°C° 0.9 mm 8 mps 750 mmHg 87%
    05:00 +8°C° 0.9 mm 7 mps 750 mmHg 89%
    06:00 +8°C° 0.9 mm 7 mps 749 mmHg 91%
    07:00 +8°C° 1 mm 6 mps 749 mmHg 91%
    08:00 +8°C° 1 mm 6 mps 748 mmHg 91%
    09:00 +8°C° 1 mm 6 mps 747 mmHg 91%
    10:00 +8°C° 0.5 mm 7 mps 747 mmHg 86%
    11:00 +9°C° 0.5 mm 7 mps 746 mmHg 81%
    12:00 +10°C° 0.5 mm 8 mps 745 mmHg 76%
    13:00 +9°C° 0.7 mm 8 mps 744 mmHg 78%
    14:00 +8°C° 0.7 mm 9 mps 743 mmHg 79%
    15:00 +7°C° 0.7 mm 9 mps 743 mmHg 80%
    16:00 +6°C° 0.3 mm 8 mps 742 mmHg 81%
    17:00 +5°C° 0.3 mm 8 mps 742 mmHg 81%
    18:00 +4°C° 0.3 mm 7 mps 742 mmHg 82%
    19:00 +4°C° 0.1 mm 7 mps 743 mmHg 81%
    20:00 +3°C° 0.1 mm 7 mps 743 mmHg 81%
    21:00 +3°C° 0.1 mm 7 mps 743 mmHg 80%
    22:00 +2°C° 0.1 mm 7 mps 743 mmHg 80%
    23:00 +2°C° 0.1 mm 7 mps 743 mmHg 80%

    28 February, Tuesday

    Time Temperature Precipitation Wind Pressure Humidity
    00:00 +2°C° 0.1 mm 7 mps 743 mmHg 80%
    01:00 +2°C° 0.1 mm 7 mps 743 mmHg 81%
    02:00 +1°C° 0.1 mm 8 mps 743 mmHg 83%
    03:00 +1°C° 0.1 mm 8 mps 743 mmHg 84%
    04:00 +1°C° 0.8 mm 8 mps 742 mmHg 85%
    05:00 +1°C° 0.8 mm 8 mps 742 mmHg 86%
    06:00 +1°C° 0.8 mm 8 mps 741 mmHg 86%
    07:00 +2°C° 0.2 mm 8 mps 741 mmHg 84%
    08:00 +2°C° 0.2 mm 8 mps 741 mmHg 82%
    09:00 +4°C° 0.2 mm 8 mps 741 mmHg 79%
    10:00 +5°C° 0.3 mm 9 mps 741 mmHg 75%
    11:00 +5°C° 0.3 mm 9 mps 741 mmHg 70%
    12:00 +6°C° 0.3 mm 9 mps 741 mmHg 66%
    13:00 +6°C° 0.3 mm 9 mps 741 mmHg 66%
    14:00 +6°C° 0.3 mm 9 mps 742 mmHg 67%
    15:00 +5°C° 0.3 mm 8 mps 742 mmHg 67%
    16:00 +5°C° 0 mm 8 mps 743 mmHg 71%
    17:00 +4°C° 0 mm 7 mps 744 mmHg 75%
    18:00 +3°C° 0 mm 6 mps 745 mmHg 79%
    19:00 +3°C° 0 mm 6 mps 746 mmHg 79%
    20:00 +3°C° 0 mm 7 mps 747 mmHg 79%
    21:00 +3°C° 0 mm 7 mps 748 mmHg 79%
    22:00 +3°C° 0 mm 7 mps 748 mmHg 80%
    23:00 +3°C° 0 mm 7 mps 749 mmHg 81%

    1 March, Wednesday

    Time Temperature Precipitation Wind Pressure Humidity
    00:00 +3°C° 0 mm 7 mps 749 mmHg 81%
    01:00 +2°C° 0 mm 8 mps 749 mmHg 82%
    02:00 +2°C° 0 mm 8 mps 750 mmHg 82%
    03:00 +2°C° 0 mm 8 mps 750 mmHg 82%
    04:00 +3°C° 0 mm 7 mps 751 mmHg 83%
    05:00 +2°C° 0 mm 7 mps 751 mmHg 84%
    06:00 +2°C° 0 mm 7 mps 752 mmHg 86%
    07:00 +3°C° 0 mm 7 mps 752 mmHg 84%
    08:00 +4°C° 0 mm 6 mps 753 mmHg 82%
    09:00 +5°C° 0 mm 6 mps 754 mmHg 80%
    10:00 +5°C° 0.2 mm 6 mps 753 mmHg 82%
    11:00 +7°C° 0.2 mm 6 mps 753 mmHg 83%
    12:00 +7°C° 0.2 mm 6 mps 753 mmHg 85%
    13:00 +6°C° 0.7 mm 7 mps 752 mmHg 87%
    14:00 +8°C° 0.7 mm 7 mps 752 mmHg 90%
    15:00 +9°C° 0.7 mm 8 mps 752 mmHg 92%
    16:00 +9°C° 0.1 mm 7 mps 752 mmHg 92%
    17:00 +9°C° 0.1 mm 7 mps 752 mmHg 92%
    18:00 +9°C° 0.1 mm 7 mps 753 mmHg 92%
    19:00 +9°C° 0 mm 6 mps 753 mmHg 93%
    20:00 +8°C° 0 mm 6 mps 754 mmHg 94%
    21:00 +8°C° 0 mm 5 mps 754 mmHg 95%
    22:00 +8°C° 0 mm 5 mps 755 mmHg 95%
    23:00 +8°C° 0 mm 4 mps 755 mmHg 96%
    Show more